Simultaneous Nadir Overpasses (SNOs) Predictions

Prediction of SNOs between GOES-16 and NOAA-20 Satellite Orbit:

Table of predicted SNOs for the next 14.0 days since TLE Epoch: 9/13/2019
Index Date Time (GOES-16) GOES-16 Lat,Lon NOAA-20 Lat,Lon Distance(km) Time Diff (sec)
1 09/14/2019 18:32:17 -0.01, -75.19 -0.48, -77.17 226.35 80
2 09/15/2019 18:16:13 -0.01, -75.19 0.58, -72.65 290.16 80
3 09/17/2019 06:38:01 0.01, -75.20 0.59, -77.93 310.15 80
4 09/18/2019 06:16:37 0.01, -75.20 -0.41, -73.39 206.46 80
5 09/19/2019 18:38:33 -0.01, -75.21 -0.82, -78.69 397.51 80
6 09/20/2019 18:22:30 -0.01, -75.22 0.24, -74.17 119.34 80
7 09/22/2019 06:44:18 0.01, -75.23 0.93, -79.45 480.43 80
8 09/23/2019 06:22:54 0.01, -75.23 -0.07, -74.92 36.40 80
9 09/25/2019 18:26:06 -0.02, -75.25 -0.09, -75.70 50.16 80
10 09/26/2019 18:10:02 -0.02, -75.26 0.92, -71.17 467.31 80




NCC Satellite Simultaneous Nadir Overpasses (SNOs) Prediction Service
